| time (UTC) | temp F | wind direction | speed knots | gust knots | rain 1hr in | rain 24hr in | rain mn in | humidity % | barometer mb |
| 20260502163302 | 48 | 254 | 5.2 | 11.3 | 0.00 | 0.00 | 0.00 | 49 | 1015.1 |
| 20260502160512 | 46 | 64 | 3.5 | 11.3 | 0.00 | 0.00 | 0.00 | 51 | 1015.5 |
| 20260502123038 | 37 | 347 | 1.7 | 7.8 | 0.00 | 0.00 | 0.00 | 79 | 1015.2 |
| 20260502121537 | 37 | 324 | 2.6 | 7.0 | 0.00 | 0.00 | 0.00 | 80 | 1015.4 |
| 20260502114539 | 36 | 318 | 0.9 | 5.2 | 0.00 | 0.00 | 0.00 | 82 | 1015.3 |
| 20260502113054 | 36 | 0 | 0.9 | 3.5 | 0.00 | 0.00 | 0.00 | 82 | 1015.1 |
| 20260502111543 | 35 | 0 | 0.0 | 1.7 | 0.00 | 0.00 | 0.00 | 81 | 1015.1 |
| 20260502110037 | 35 | 303 | 0.0 | 2.6 | 0.00 | 0.00 | 0.00 | 80 | 1014.9 |
| 20260502104549 | 35 | 0 | 0.0 | 1.7 | 0.00 | 0.00 | 0.00 | 79 | 1014.8 |
| 20260502103059 | 36 | 0 | 0.0 | 4.3 | 0.00 | 0.00 | 0.00 | 78 | 1014.9 |
| 20260502101547 | 36 | 0 | 0.9 | 3.5 | 0.00 | 0.00 | 0.00 | 77 | 1015.1 |
| 20260502090258 | 37 | 0 | 0.0 | 2.6 | 0.00 | 0.00 | 0.00 | 75 | 1015.2 |
| 20260502070255 | 40 | 278 | 1.7 | 4.3 | 0.00 | 0.00 | 0.00 | 68 | 1015.0 |
| 20260502064555 | 40 | 299 | 0.9 | 6.1 | 0.00 | 0.00 | 0.00 | 66 | 1015.2 |
| 20260502061620 | 40 | 0 | 2.6 | 7.0 | 0.00 | 0.00 | 0.00 | 70 | 1015.4 |
| 20260502060039 | 41 | 346 | 2.6 | 8.7 | 0.00 | 0.00 | 0.00 | 70 | 1015.6 |
| 20260502053246 | 41 | 321 | 2.6 | 9.6 | 0.00 | 0.00 | 0.00 | 73 | 1015.6 |
| 20260502051538 | 41 | 0 | 3.5 | 10.4 | 0.00 | 0.00 | 0.00 | 72 | 1015.6 |
| 20260502043502 | 43 | 323 | 7.0 | 12.2 | 0.00 | 0.00 | 0.00 | 76 | 1015.8 |
| 20260502041931 | 43 | 343 | 4.3 | 10.4 | 0.00 | 0.00 | 0.00 | 76 | 1015.7 |
| 20260502040511 | 44 | 297 | 5.2 | 8.7 | 0.00 | 0.00 | 0.00 | 76 | 1015.6 |
| 20260502034814 | 44 | 328 | 0.9 | 7.0 | 0.00 | 0.00 | 0.00 | 75 | 1015.7 |
| 20260502030314 | 44 | 287 | 3.5 | 8.7 | 0.00 | 0.00 | 0.00 | 73 | 1015.9 |
| 20260502023057 | 45 | 308 | 3.5 | 12.2 | 0.00 | 0.00 | 0.00 | 71 | 1015.3 |
| 20260502022047 | 45 | 268 | 5.2 | 13.9 | 0.00 | 0.00 | 0.00 | 73 | 1015.3 |
| 20260502020037 | 46 | 336 | 3.5 | 8.7 | 0.00 | 0.00 | 0.00 | 74 | 1015.2 |
| 20260502014536 | 46 | 296 | 5.2 | 9.6 | 0.00 | 0.00 | 0.00 | 75 | 1014.4 |
| 20260502013037 | 47 | 282 | 2.6 | 13.0 | 0.00 | 0.00 | 0.00 | 75 | 1014.4 |
| 20260502011729 | 47 | 319 | 6.1 | 13.9 | 0.00 | 0.00 | 0.00 | 75 | 1014.2 |
| 20260502002054 | 49 | 321 | 2.6 | 11.3 | 0.00 | 0.00 | 0.00 | 71 | 1013.3 |
| 20260501234950 | 51 | 360 | 4.3 | 12.2 | 0.00 | 0.00 | 0.00 | 65 | 1012.6 |
| 20260501233050 | 53 | 351 | 9.6 | 17.4 | 0.00 | 0.00 | 0.00 | 59 | 1012.4 |
| 20260501231546 | 56 | 308 | 7.0 | 11.3 | 0.00 | 0.00 | 0.00 | 46 | 1011.9 |
| 20260501230110 | 58 | 282 | 4.3 | 10.4 | 0.00 | 0.00 | 0.00 | 42 | 1011.8 |
| 20260501224548 | 59 | 256 | 5.2 | 16.5 | 0.00 | 0.00 | 0.00 | 41 | 1011.8 |
| 20260501223049 | 59 | 270 | 7.0 | 20.0 | 0.00 | 0.00 | 0.00 | 39 | 1011.7 |
| 20260501221537 | 60 | 283 | 4.3 | 13.9 | 0.00 | 0.00 | 0.00 | 41 | 1011.7 |
| 20260501220039 | 60 | 238 | 7.8 | 19.1 | 0.00 | 0.00 | 0.00 | 36 | 1011.7 |
| 20260501214535 | 61 | 251 | 12.2 | 21.7 | 0.00 | 0.00 | 0.00 | 34 | 1011.8 |
| 20260501213045 | 60 | 271 | 9.6 | 18.2 | 0.00 | 0.00 | 0.00 | 35 | 1011.7 |
| 20260501211550 | 61 | 258 | 9.6 | 16.5 | 0.00 | 0.00 | 0.00 | 34 | 1011.8 |
| 20260501210041 | 61 | 303 | 7.0 | 18.2 | 0.00 | 0.00 | 0.00 | 35 | 1011.9 |
| 20260501204541 | 60 | 236 | 7.8 | 18.2 | 0.00 | 0.00 | 0.00 | 33 | 1011.9 |
| 20260501203040 | 61 | 268 | 11.3 | 20.0 | 0.00 | 0.00 | 0.00 | 32 | 1012.0 |
| 20260501201541 | 61 | 289 | 11.3 | 20.0 | 0.00 | 0.00 | 0.00 | 34 | 1011.9 |
| 20260501200039 | 61 | 216 | 8.7 | 19.1 | 0.00 | 0.00 | 0.00 | 31 | 1012.0 |
| 20260501194537 | 61 | 259 | 10.4 | 21.7 | 0.00 | 0.00 | 0.00 | 32 | 1012.0 |
| 20260501193045 | 61 | 239 | 10.4 | 19.1 | 0.00 | 0.00 | 0.00 | 30 | 1012.2 |
| 20260501191541 | 61 | 231 | 10.4 | 17.4 | 0.00 | 0.00 | 0.00 | 30 | 1012.5 |
| 20260501190038 | 61 | 204 | 7.8 | 14.8 | 0.00 | 0.00 | 0.00 | 33 | 1012.5 |
| 20260501184538 | 61 | 227 | 9.6 | 19.1 | 0.00 | 0.00 | 0.00 | 32 | 1012.7 |
| 20260501183037 | 61 | 289 | 7.8 | 16.5 | 0.00 | 0.00 | 0.00 | 30 | 1012.5 |
| 20260501181536 | 61 | 267 | 7.8 | 16.5 | 0.00 | 0.00 | 0.00 | 29 | 1012.6 |
| 20260501180059 | 60 | 251 | 7.0 | 14.8 | 0.00 | 0.00 | 0.00 | 31 | 1012.8 |
| 20260501174538 | 60 | 226 | 7.8 | 19.1 | 0.00 | 0.00 | 0.00 | 29 | 1012.9 |
| 20260501173038 | 60 | 243 | 6.1 | 19.1 | 0.00 | 0.00 | 0.00 | 27 | 1013.0 |
| 20260501171544 | 59 | 215 | 7.8 | 14.8 | 0.00 | 0.00 | 0.00 | 24 | 1013.0 |